London, United Kingdom

7:25 PM BST on September 28, 2016 (GMT +0100)
London

Weather History for 03772 - February, 2014

Change the Weather History Date:

Thursday, February 27, 2014

  Actual Average Record
Temperature  
Mean Temperature 45 °F -  
Max Temperature 53 °F - - ()
Min Temperature 37 °F - - ()
Degree Days  
Heating Degree Days 20    
Moisture  
Dew Point 38 °F    
Average Humidity 73    
Maximum Humidity 93    
Minimum Humidity 39    
Precipitation  
Precipitation 0.08 in - - ()
Sea Level Pressure  
Sea Level Pressure 29.73 in    
Wind  
Wind Speed 13 mph ()    
Max Wind Speed 21 mph    
Max Gust Speed 31 mph    
Visibility 9.1 miles    
Events Rain    
T = Trace of Precipitation, MM = Missing Value Source: Averaged Metar Reports

Daily Weather History Graph

Daily Weather History Graph

Search for Another Location

Airport or City:

Trip Planner

Search our weather history database for the weather conditions in past years. The results will help you decide how hot, cold, wet, or windy it might be!

Date:

Astronomy

Feb. 27, 2014 Rise Set
Actual Time 6:51 AM GMT 5:38 PM GMT
Civil Twilight 6:17 AM GMT 6:12 PM GMT
Nautical Twilight 5:39 AM GMT 6:50 PM GMT
Astronomical Twilight 5:00 AM GMT 7:29 PM GMT
Moon 5:23 AM GMT (2/27) 3:38 PM GMT (2/27)
Length of Visible Light 11h 54m
Length of Day
10h 46m
Waning Crescent, 5% of the Moon is Illuminated
Feb 27
Waning Crescent
Mar 1
New
Mar 8
First Quarter
Mar 16
Full
Mar 24
Last Quarter

Hourly Weather History & Observations

Time (GMT) Temp. Windchill Dew Point Humidity Pressure Visibility Wind Dir Wind Speed Gust Speed Precip Events Conditions
12:00 AM 44 °F - 37 °F 70% 29.95 in 12 mi South 11.5 mph - -   Partly Cloudy
12:20 AM 42.8 °F 36.6 °F 39.2 °F 87% 29.92 in - SSE 11.5 mph - N/A   Clear
12:50 AM 42.8 °F 37.0 °F 39.2 °F 87% 29.89 in 6.2 mi South 10.4 mph - N/A   Partly Cloudy
1:00 AM 44 °F - 38 °F 71% 29.91 in 15 mi SSE 9.2 mph - -   Mostly Cloudy
1:20 AM 44.6 °F 38.1 °F 39.2 °F 81% 29.89 in 6.2 mi South 13.8 mph - N/A   Partly Cloudy
1:50 AM 44.6 °F 38.1 °F 39.2 °F 81% 29.86 in 6.2 mi South 13.8 mph - N/A   Unknown
2:00 AM 45 °F - 38 °F 68% 29.87 in 15 mi South 15.0 mph - -   Mostly Cloudy
2:20 AM 46.4 °F 39.8 °F 39.2 °F 76% 29.86 in 6.2 mi South 16.1 mph - N/A   Unknown
2:50 AM 46.4 °F 39.8 °F 39.2 °F 76% 29.83 in 6.2 mi South 16.1 mph 27.6 mph N/A Rain Light Rain
3:00 AM 46 °F - 38 °F 64% 29.83 in 9 mi South 16.1 mph - - Rain Light Rain Showers
3:20 AM 44.6 °F 37.4 °F 39.2 °F 81% 29.80 in 6.2 mi South 16.1 mph - N/A Rain Light Rain
3:50 AM 44.6 °F 37.2 °F 41.0 °F 87% 29.77 in 6.2 mi South 17.3 mph - N/A Rain Light Rain
4:00 AM 44 °F - 39 °F 78% 29.78 in 7 mi South 17.3 mph - - Rain Rain
4:20 AM 44.6 °F 37.2 °F 41.0 °F 87% 29.74 in 6.2 mi South 17.3 mph - N/A Rain Light Rain
4:50 AM 44.6 °F 36.4 °F 41.0 °F 87% 29.71 in 6.2 mi South 20.7 mph - N/A Rain Light Rain
5:00 AM 45 °F - 40 °F 78% 29.73 in 6 mi South 20.7 mph - - Rain Rain
5:20 AM 44.6 °F 36.9 °F 41.0 °F 87% 29.68 in 5.6 mi South 18.4 mph - N/A Rain Rain
5:50 AM 44.6 °F 36.9 °F 42.8 °F 93% 29.68 in 6.2 mi South 18.4 mph - N/A Rain Light Rain
6:00 AM 45 °F - 41 °F 82% 29.68 in 9 mi South 17.3 mph - - Rain Light Rain
6:20 AM 44.6 °F 36.9 °F 42.8 °F 93% 29.65 in 6.2 mi South 18.4 mph 31.1 mph N/A Rain Light Rain
6:50 AM 44.6 °F 36.9 °F 42.8 °F 93% 29.65 in 3.7 mi South 18.4 mph 31.1 mph N/A Rain Light Rain
7:00 AM 46 °F - 42 °F 81% 29.65 in 3 mi South 16.1 mph - - Rain Rain
7:20 AM 46.4 °F 40.4 °F 42.8 °F 87% 29.62 in 6.2 mi SSW 13.8 mph - N/A Rain Rain
7:50 AM 46.4 °F 40.4 °F 44.6 °F 93% 29.65 in 6.2 mi WSW 13.8 mph - N/A   Scattered Clouds
8:00 AM 46 °F - 43 °F 84% 29.65 in 25 mi WSW 13.8 mph - - Rain Rain
8:20 AM 46.4 °F 39.8 °F 42.8 °F 87% 29.65 in 6.2 mi West 16.1 mph - N/A   Scattered Clouds
8:50 AM 46.4 °F 40.1 °F 41.0 °F 81% 29.68 in 6.2 mi West 15.0 mph - N/A   Partly Cloudy
9:00 AM 46 °F - 39 °F 70% 29.68 in 16 mi West 13.8 mph - -   Scattered Clouds
9:20 AM 46.4 °F 39.8 °F 41.0 °F 81% 29.68 in - West 16.1 mph - N/A   Clear
9:50 AM 46.4 °F 39.5 °F 41.0 °F 81% 29.68 in - West 17.3 mph - N/A   Clear
10:00 AM 47 °F - 39 °F 67% 29.70 in 14 mi West 15.0 mph - -  
10:20 AM 48.2 °F - 41.0 °F 76% 29.71 in 6.2 mi West 18.4 mph - N/A   Partly Cloudy
10:50 AM 50.0 °F - 39.2 °F 66% 29.71 in 6.2 mi West 19.6 mph - N/A   Scattered Clouds
11:00 AM 49 °F - 39 °F 58% 29.72 in 17 mi West 18.4 mph - -  
11:20 AM 50.0 °F - 39.2 °F 66% 29.71 in 6.2 mi West 19.6 mph - N/A   Scattered Clouds
11:50 AM 51.8 °F - 39.2 °F 62% 29.71 in 6.2 mi West 17.3 mph - N/A   Scattered Clouds
12:00 PM 50 °F - 35 °F 46% 29.73 in 16 mi West 16.1 mph - -   Scattered Clouds
12:20 PM 51.8 °F - 37.4 °F 58% 29.71 in 6.2 mi West 19.6 mph - N/A   Scattered Clouds
12:50 PM 51.8 °F - 37.4 °F 58% 29.71 in 6.2 mi West 15.0 mph - N/A   Scattered Clouds
1:00 PM 52 °F - 35 °F 39% 29.72 in 18 mi West 15.0 mph - -   Scattered Clouds
1:20 PM 50.0 °F - 35.6 °F 58% 29.71 in 6.2 mi West 17.3 mph - N/A   Scattered Clouds
1:50 PM 50.0 °F - 35.6 °F 58% 29.71 in 6.2 mi West 13.8 mph - N/A   Scattered Clouds
2:00 PM 50 °F - 35 °F 43% 29.71 in 19 mi West 12.7 mph - - Rain Rain
2:20 PM 51.8 °F - 37.4 °F 58% 29.71 in 6.2 mi West 11.5 mph - N/A   Mostly Cloudy
2:50 PM 50.0 °F - 37.4 °F 62% 29.71 in 6.2 mi West 6.9 mph - N/A   Scattered Clouds
3:00 PM 48 °F - 37 °F 54% 29.71 in 19 mi West 6.9 mph - - Rain Light Rain Showers
3:20 PM 51.8 °F - 37.4 °F 58% 29.71 in 6.2 mi West 12.7 mph - N/A   Scattered Clouds
3:50 PM 50.0 °F - 33.8 °F 54% 29.71 in 6.2 mi West 17.3 mph - N/A   Partly Cloudy
4:00 PM 48 °F - 35 °F 50% 29.71 in 25 mi WSW 16.1 mph - - Rain Rain
4:20 PM 50.0 °F - 35.6 °F 58% 29.71 in 6.2 mi WSW 15.0 mph - N/A   Unknown
4:50 PM 48.2 °F - 35.6 °F 62% 29.71 in 6.2 mi WSW 13.8 mph - N/A   Partly Cloudy
5:00 PM 49 °F - 35 °F 47% 29.72 in 19 mi WSW 12.7 mph - -  
5:20 PM 46.4 °F 40.7 °F 37.4 °F 71% 29.71 in 6.2 mi SW 12.7 mph - N/A   Partly Cloudy
5:50 PM 46.4 °F 40.7 °F 37.4 °F 71% 29.71 in 6.2 mi SW 12.7 mph - N/A   Partly Cloudy
6:00 PM 46 °F - 37 °F 60% 29.73 in 19 mi SW 12.7 mph - -   Scattered Clouds
6:20 PM 44.6 °F 38.8 °F 37.4 °F 76% 29.74 in 6.2 mi SW 11.5 mph - N/A   Partly Cloudy
6:50 PM 42.8 °F 37.5 °F 37.4 °F 81% 29.74 in 6.2 mi SW 9.2 mph - N/A   Partly Cloudy
7:00 PM 44 °F - 36 °F 66% 29.74 in 19 mi SW 10.4 mph - -   Scattered Clouds
7:20 PM 42.8 °F 37.0 °F 37.4 °F 81% 29.74 in 6.2 mi SW 10.4 mph - N/A   Partly Cloudy
7:50 PM 42.8 °F 37.5 °F 37.4 °F 81% 29.74 in 6.2 mi SW 9.2 mph - N/A   Partly Cloudy
8:00 PM 42 °F - 35 °F 69% 29.73 in 18 mi SSW 9.2 mph - -  
8:20 PM 41.0 °F 35.2 °F 35.6 °F 81% 29.71 in 6.2 mi SSW 9.2 mph - N/A   Partly Cloudy
8:50 PM 41.0 °F 34.7 °F 35.6 °F 81% 29.71 in - SW 10.4 mph - N/A   Clear
9:00 PM 41 °F - 35 °F 71% 29.72 in 22 mi SW 10.4 mph - -  
9:20 PM 41.0 °F 35.2 °F 35.6 °F 81% 29.71 in - SW 9.2 mph - N/A   Clear
9:50 PM 39.2 °F 33.0 °F 35.6 °F 87% 29.68 in - SSW 9.2 mph - N/A   Clear
10:00 PM 40 °F - 35 °F 75% 29.70 in 19 mi SSW 9.2 mph - -  
10:20 PM 39.2 °F 33.0 °F 35.6 °F 87% 29.68 in - SSW 9.2 mph 20.7 mph N/A   Clear
10:50 PM 37.4 °F 32.1 °F 35.6 °F 93% 29.65 in - South 6.9 mph - N/A   Clear
11:00 PM 39 °F - 35 °F 78% 29.67 in 18 mi South 8.1 mph - -  
11:20 PM 37.4 °F 32.1 °F 35.6 °F 93% 29.65 in - South 6.9 mph - N/A   Clear
11:50 PM 37.4 °F 32.8 °F 33.8 °F 87% 29.62 in - SSE 5.8 mph - N/A   Clear